{"data":{"norad_id":65844,"intl_designator":"2025-221X","name":"STARLINK-35148","alt_names":[],"object_type":"PAYLOAD","status":"ACTIVE","operator":null,"country":"US","launch_date":"2025-09-29","launch_site_code":"AFWTR","launch_vehicle":null,"mission":null,"orbit_class":"UNKNOWN","rcs_meters":null,"size_class":null,"mass_kg":null,"dimensions":null,"purposes":["comms"],"wikipedia_slug":null,"has_3d_model":false,"image_url":null,"decayed_at":null,"tle_current":{"epoch":"2026-05-25T03:08:53.355840Z","epoch_age_seconds":70529,"freshness":"FRESH","line1":"1 65844U 25221X   26145.13117310  .00024056  00000+0  72074-3 0  9993","line2":"2 65844  53.1588  92.8017 0001168  85.7888 274.3248 15.34403410 36448","mean_motion":15.3440341,"eccentricity":0.0001168,"inclination_deg":53.1588,"raan_deg":92.8017,"arg_perigee_deg":85.7888,"mean_anomaly_deg":274.3248,"bstar":0.00072074,"rev_number":3644,"period_min":93.847549517633,"perigee_km":461.89409603099,"apogee_km":463.49211394351,"semimajor_km":6840.8301049873,"source":"CELESTRAK","updated_at":"2026-05-25T13:38:20.946473Z"}}}